User: anonymous   Login
Location: Dover
(39.1580°N, 75.5250°W)
Time: 00:21:45
(UTC-04:00)
Language:

Cosmos 1437 Rocket - Orbit

View from above orbital plane
View from above orbital plane
View from above satellite
View from above satellite

Ground track
Ground track

The orbit data is extracted from the following two-line orbital elements,

1 13771U 83003B   15216.09135197  .00001291  00000-0  80394-4 0  9994
2 13771 081.1578 070.0910 0029009 111.8099 248.6216 15.08536649770759
Epoch (UTC): 04 August 2015 02:11:32
Eccentricity: 0.0029009
inclination: 81.1578°
perigee height: 520 km
apogee height: 561 km
right ascension of ascending node: 70.0910°
argument of perigee: 111.8099°
revolutions per day: 15.08536649
mean anomaly at epoch: 248.6216°
orbit number at epoch: 77075

The dashed part of the orbit path shows where the satellite is in the earth's shadow,  

DLR